Change the Weather History Date:

Sunday, December 9, 2012

  Actual Average Record
Temperature  
Mean Temperature 37 °F 39 °F  
Max Temperature 50 °F 51 °F 79 °F (1996)
Min Temperature 24 °F 28 °F -1 °F (1978)
Degree Days  
Heating Degree Days 28 26  
Month to date heating degree days 120 219  
Since 1 July heating degree days 657 936  
Cooling Degree Days 0 0  
Month to date cooling degree days 0 0  
Year to date cooling degree days 2524 1839  
Moisture  
Dew Point 18 °F    
Average Humidity 57    
Maximum Humidity 85    
Minimum Humidity 29    
Precipitation  
Precipitation T in 0.01 in 0.19 in (2007)
Month to date precipitation T 0.16  
Year to date precipitation 15.62 21.11  
Snow  
Snow T in - - ()
Month to date snowfall T  
Since 1 July snowfall T  
Snow Depth 0.00 in    
Sea Level Pressure  
Sea Level Pressure 30.03 in    
Wind  
Wind Speed 17 mph (North)    
Max Wind Speed 26 mph    
Max Gust Speed 35 mph    
Visibility 10 miles    
Events      
T = Trace of Precipitation, MM = Missing Value Source: NWS Daily Summary

Daily Weather History Graph

Daily Weather History Graph

Search for Another Location

Airport or City:

Trip Planner

Search our weather history database for the weather conditions in past years. The results will help you decide how hot, cold, wet, or windy it might be!

Date:

Astronomy

Dec. 09, 2012 Rise Set
Actual Time 7:44 AM CST 5:32 PM CST
Civil Twilight 7:15 AM CST 6:00 PM CST
Nautical Twilight 6:43 AM CST 6:32 PM CST
Astronomical Twilight 6:12 AM CST 7:03 PM CST
Moon 3:25 AM CST (12/9) 2:35 PM CST (12/9)
Length of Visible Light 10h 44m
Length of Day
9h 48m
Waning Crescent, 18% of the Moon is Illuminated
Dec 9
Waning Crescent
Dec 13
New
Dec 19
First Quarter
Dec 28
Full
Jan 4
Last Quarter

Hourly Weather History & Observations

Time (CST) Temp. Windchill Dew Point Humidity Pressure Visibility Wind Dir Wind Speed Gust Speed Precip Events Conditions
1:28 AM 37.4 °F 28.9 °F 32.0 °F 81% 29.81 in 10.0 mi North 13.8 mph 27.6 mph N/A   Scattered Clouds
1:37 AM 37.4 °F 28.9 °F 33.8 °F 87% 29.82 in 8.0 mi NNW 13.8 mph - N/A   Mostly Cloudy
1:51 AM 37.0 °F 30.4 °F 34.0 °F 89% 29.81 in 7.0 mi NNW 9.2 mph 19.6 mph N/A   Overcast
2:51 AM 39.0 °F 30.6 °F 36.0 °F 89% 29.83 in 5.0 mi North 15.0 mph 21.9 mph N/A   Overcast
3:51 AM 37.9 °F 28.5 °F 30.9 °F 76% 29.86 in 10.0 mi North 17.3 mph 26.5 mph N/A   Overcast
3:58 AM 37.4 °F 26.9 °F 28.4 °F 70% 29.89 in 10.0 mi North 20.7 mph 28.8 mph N/A   Overcast
4:05 AM 37.4 °F 26.9 °F 28.4 °F 70% 29.89 in 10.0 mi North 20.7 mph 28.8 mph N/A   Overcast
4:51 AM 35.1 °F 25.9 °F 25.0 °F 67% 29.88 in 10.0 mi North 13.8 mph 25.3 mph N/A   Overcast
5:51 AM 35.1 °F 24.8 °F 21.0 °F 57% 29.93 in 10.0 mi North 17.3 mph - N/A   Overcast
6:51 AM 35.1 °F 24.8 °F 18.0 °F 50% 29.96 in 10.0 mi North 17.3 mph 26.5 mph N/A   Overcast
7:51 AM 35.1 °F 27.4 °F 19.0 °F 52% 30.01 in 10.0 mi North 10.4 mph - N/A   Overcast
8:51 AM 35.1 °F 27.4 °F 19.0 °F 52% 30.04 in 10.0 mi North 10.4 mph - N/A   Overcast
9:51 AM 36.0 °F 26.7 °F 19.0 °F 50% 30.08 in 10.0 mi NNE 15.0 mph - N/A   Scattered Clouds
10:51 AM 37.9 °F 27.6 °F 17.1 °F 43% 30.10 in 10.0 mi NNE 20.7 mph 25.3 mph N/A   Partly Cloudy
11:51 AM 37.9 °F 27.3 °F 10.9 °F 33% 30.08 in 10.0 mi North 21.9 mph 28.8 mph N/A   Clear
12:51 PM 37.9 °F 27.9 °F 9.0 °F 30% 30.08 in 10.0 mi North 19.6 mph 29.9 mph N/A   Clear
1:51 PM 39.0 °F 28.8 °F 10.0 °F 30% 30.08 in 10.0 mi North 21.9 mph 28.8 mph N/A   Clear
4:51 PM 32.0 °F 20.1 °F 7.0 °F 35% 30.14 in 10.0 mi North 19.6 mph 27.6 mph N/A   Clear
5:51 PM 30.0 °F 17.2 °F 6.1 °F 36% 30.18 in 10.0 mi North 20.7 mph 28.8 mph N/A   Overcast
6:51 PM 30.0 °F 17.2 °F 5.0 °F 35% 30.21 in 10.0 mi North 20.7 mph 28.8 mph N/A   Overcast
7:51 PM 30.0 °F 17.9 °F 3.9 °F 33% 30.25 in 10.0 mi North 18.4 mph 27.6 mph N/A   Overcast
8:51 PM 28.0 °F 14.3 °F 9.0 °F 45% 30.27 in 10.0 mi North 21.9 mph 28.8 mph N/A   Overcast
9:51 PM 26.1 °F 15.0 °F 14.0 °F 60% 30.27 in 10.0 mi North 12.7 mph - 0.00 in   Overcast
11:51 PM 24.1 °F 11.0 °F 1.9 °F 38% 30.28 in 10.0 mi North 16.1 mph - N/A   Clear